TimeCST,TemperatureF,Dew PointF,Humidity,Sea Level PressureIn,VisibilityMPH,Wind Direction,Wind SpeedMPH,Gust SpeedMPH,PrecipitationIn,Events,Conditions,WindDirDegrees,DateUTC
12:53 AM,30.9,28.9,92,30.45,9.0,WNW,3.5,-,N/A,,Scattered Clouds,300,2013-01-04 06:53:00
1:53 AM,30.9,30.0,96,30.45,7.0,Calm,Calm,-,N/A,,Overcast,0,2013-01-04 07:53:00
2:53 AM,33.1,30.9,92,30.45,9.0,Calm,Calm,-,N/A,,Overcast,0,2013-01-04 08:53:00
3:53 AM,34.0,32.0,92,30.43,10.0,Calm,Calm,-,N/A,,Overcast,0,2013-01-04 09:53:00
4:53 AM,32.0,30.0,92,30.45,9.0,Calm,Calm,-,N/A,,Scattered Clouds,0,2013-01-04 10:53:00
5:53 AM,30.0,28.0,92,30.47,8.0,Calm,Calm,-,N/A,,Clear,0,2013-01-04 11:53:00
6:53 AM,28.4,26.6,93,30.50,9.0,Calm,Calm,-,N/A,,Clear,0,2013-01-04 12:53:00
7:53 AM,32.0,30.0,92,30.51,8.0,Calm,Calm,-,N/A,,Clear,0,2013-01-04 13:53:00
8:53 AM,35.1,33.1,92,30.53,8.0,Calm,Calm,-,N/A,,Partly Cloudy,0,2013-01-04 14:53:00
9:53 AM,37.9,34.0,86,30.54,10.0,Calm,Calm,-,N/A,,Partly Cloudy,0,2013-01-04 15:53:00
10:53 AM,43.0,32.0,65,30.53,10.0,NW,3.5,-,N/A,,Mostly Cloudy,320,2013-01-04 16:53:00
11:53 AM,46.0,30.0,54,30.50,10.0,Calm,Calm,-,N/A,,Clear,0,2013-01-04 17:53:00
12:53 PM,46.9,30.0,52,30.46,10.0,West,6.9,-,N/A,,Scattered Clouds,280,2013-01-04 18:53:00
1:53 PM,50.0,28.9,44,30.43,10.0,NNW,6.9,-,N/A,,Partly Cloudy,330,2013-01-04 19:53:00
2:53 PM,51.1,27.0,39,30.42,10.0,NNE,4.6,-,N/A,,Overcast,20,2013-01-04 20:53:00
3:53 PM,48.9,28.0,44,30.42,10.0,NW,6.9,-,N/A,,Overcast,320,2013-01-04 21:53:00
4:53 PM,48.0,28.9,48,30.41,10.0,Calm,Calm,-,N/A,,Overcast,0,2013-01-04 22:53:00
5:53 PM,45.0,35.1,68,30.43,10.0,Calm,Calm,-,N/A,,Overcast,0,2013-01-04 23:53:00
6:53 PM,44.1,35.1,71,30.43,10.0,Calm,Calm,-,N/A,,Overcast,0,2013-01-05 00:53:00
7:53 PM,43.0,33.1,68,30.42,10.0,Calm,Calm,-,N/A,,Mostly Cloudy,0,2013-01-05 01:53:00
8:53 PM,39.9,34.0,79,30.42,10.0,Calm,Calm,-,N/A,,Clear,0,2013-01-05 02:53:00
9:53 PM,37.9,33.1,83,30.41,10.0,Calm,Calm,-,N/A,,Partly Cloudy,0,2013-01-05 03:53:00
10:53 PM,37.0,33.1,86,30.41,10.0,Calm,Calm,-,N/A,,Scattered Clouds,0,2013-01-05 04:53:00
11:53 PM,37.0,34.0,89,30.39,10.0,Calm,Calm,-,N/A,,Mostly Cloudy,0,2013-01-05 05:53:00